Change the Weather History Date:

Sunday, September 16, 2012

  Actual Average Record
Temperature  
Mean Temperature 64 °F -  
Max Temperature 75 °F 77 °F 91 °F (1998)
Min Temperature 54 °F 61 °F 48 °F (2001)
Degree Days  
Heating Degree Days 2    
Growing Degree Days 14 (Base 50)    
Moisture  
Dew Point 53 °F    
Average Humidity 68    
Maximum Humidity 93    
Minimum Humidity 40    
Precipitation  
Precipitation 0.00 in - - ()
Sea Level Pressure  
Sea Level Pressure 30.13 in    
Wind  
Wind Speed 4 mph (WSW)    
Max Wind Speed 8 mph    
Max Gust Speed -    
Visibility 10 miles    
Events      
Averages and records for this station are not official NWS values.
T = Trace of Precipitation, MM = Missing Value Source: NWS Daily Summary

Daily Weather History Graph

Daily Weather History Graph

Search for Another Location

Airport or City:

Trip Planner

Search our weather history database for the weather conditions in past years. The results will help you decide how hot, cold, wet, or windy it might be!

Date:

Astronomy

Sep. 16, 2012 Rise Set
Actual Time 6:48 AM EDT 7:11 PM EDT
Civil Twilight 6:22 AM EDT 7:37 PM EDT
Nautical Twilight 5:50 AM EDT 8:08 PM EDT
Astronomical Twilight 5:19 AM EDT 8:40 PM EDT
Moon 7:23 AM EDT (9/16) 7:16 PM EDT (9/16)
Length of Visible Light 13h 15m
Length of Day
12h 22m
New Moon, 0% of the Moon is Illuminated
Sep 16
New Moon
Sep 22
First Quarter
Sep 29
Full
Oct 8
Last Quarter
Oct 15
New

Hourly Weather History & Observations

Time (EDT) Temp. Dew Point Humidity Pressure Visibility Wind Dir Wind Speed Gust Speed Precip Events Conditions
12:52 AM 55.9 °F 53.1 °F 90% 30.14 in 10.0 mi Calm Calm - N/A   Clear
1:52 AM 55.9 °F 52.0 °F 87% 30.14 in 10.0 mi WSW 3.5 mph - N/A   Clear
2:52 AM 57.0 °F 53.1 °F 87% 30.14 in 10.0 mi SW 4.6 mph - N/A   Clear
3:52 AM 54.0 °F 52.0 °F 93% 30.13 in 10.0 mi SW 4.6 mph - N/A   Clear
4:52 AM 57.0 °F 54.0 °F 89% 30.13 in 10.0 mi West 4.6 mph - N/A   Clear
5:52 AM 59.0 °F 53.1 °F 81% 30.14 in 10.0 mi SW 4.6 mph - N/A   Clear
6:05 AM 59.0 °F 53.6 °F 82% 30.14 in 10.0 mi SW 4.6 mph - N/A   Mostly Cloudy
6:52 AM 57.9 °F 54.0 °F 87% 30.15 in 10.0 mi WSW 4.6 mph - N/A   Mostly Cloudy
7:52 AM 60.1 °F 55.0 °F 83% 30.16 in 10.0 mi WSW 4.6 mph - N/A   Overcast
8:52 AM 68.0 °F 59.0 °F 73% 30.16 in 10.0 mi WNW 5.8 mph - N/A   Overcast
9:52 AM 71.1 °F 55.0 °F 57% 30.17 in 10.0 mi NW 8.1 mph - N/A   Overcast
10:52 AM 72.0 °F 53.1 °F 51% 30.17 in 10.0 mi WNW 5.8 mph - N/A   Overcast
11:52 AM 73.0 °F 53.1 °F 49% 30.16 in 10.0 mi NW 3.5 mph - N/A   Overcast
12:52 PM 73.9 °F 51.1 °F 45% 30.14 in 10.0 mi NW 3.5 mph - N/A   Overcast
1:52 PM 73.0 °F 50.0 °F 44% 30.13 in 10.0 mi WSW 6.9 mph - N/A   Overcast
2:52 PM 73.9 °F 48.0 °F 40% 30.12 in 10.0 mi SSW 4.6 mph - N/A   Overcast
3:52 PM 73.9 °F 48.9 °F 41% 30.10 in 10.0 mi SW 5.8 mph - N/A   Overcast
4:52 PM 73.9 °F 50.0 °F 43% 30.09 in 10.0 mi WSW 5.8 mph - N/A   Overcast
5:52 PM 72.0 °F 52.0 °F 49% 30.08 in 10.0 mi WSW 3.5 mph - N/A   Overcast
6:52 PM 69.1 °F 55.9 °F 63% 30.09 in 10.0 mi Calm Calm - N/A   Clear
7:52 PM 66.9 °F 57.0 °F 70% 30.10 in 10.0 mi South 3.5 mph - N/A   Clear
8:52 PM 64.9 °F 55.9 °F 73% 30.11 in 10.0 mi SSW 3.5 mph - N/A   Clear
9:52 PM 64.0 °F 55.0 °F 73% 30.12 in 10.0 mi SSW 3.5 mph - N/A   Clear
10:52 PM 63.0 °F 55.9 °F 78% 30.12 in 10.0 mi SSW 4.6 mph - N/A   Clear
11:52 PM 61.0 °F 55.9 °F 83% 30.12 in 10.0 mi SW 3.5 mph - N/A   Clear